[[{"header":{"parameterUnit":"m.s-1","parameterCategory":1,"la1":30.2991,"la2":30.254,"lo1":-89.0895,"lo2":-89.0444,"dy":0.0017,"dx":0.0017,"nx":28,"ny":28,"refTime":"2023-06-19T21:00:00:Z","depth":0,"parameterNumber":2,"parameterNumberName":"U-component_of_WINDS"},"data":[0,0,0,0,0,0,0,0,0,0,0,0,0,0,0,0,0,0,0,0,0,0,0,0,0,0,0,0,0,0,0,0,0,0,0,0,0,0,0,0,0,0,0,0,0,0,0,0,0,0,0,0,0,0,0,0,0,0,3.8812,3.8813,0,3.8974,3.8976,3.8978,3.892,3.8916,3.8913,3.8909,3.9083,3.909,3.9098,0,0,0,0,0,0,0,0,0,0,0,0,0,3.8457,3.8464,3.8811,3.8814,3.8816,3.8974,3.8976,3.8978,3.8921,3.8916,3.8912,3.8908,3.908,3.9089,3.9099,0,0,0,0,0,0,0,0,0,0,0,0,0,3.8615,3.8466,3.8811,3.8806,3.8807,3.8973,3.8976,3.8979,3.8922,3.8916,3.8911,3.8906,3.9077,3.9088,3.91,3.9284,0,0,3.9137,3.9142,0,0,0,0,0,0,0,0,3.8606,3.8628,3.8804,3.8806,3.8808,3.8921,3.8915,3.9081,3.8923,3.8878,3.8909,3.8903,3.9034,3.9049,3.9092,3.9292,3.93,3.9138,3.9145,3.9151,3.9154,0,0,0,0,0,0,0,3.8595,3.8621,3.8876,3.8807,3.8809,3.8797,3.8814,3.8946,3.8985,3.8882,3.8878,3.8898,3.9034,3.908,3.9095,3.9302,3.9138,3.9148,3.9156,3.9161,3.9662,3.9668,0,0,0,0,0,0,3.8583,3.8612,3.8871,3.8881,3.8691,3.8808,3.8826,3.889,3.8983,3.8992,3.8902,3.8894,3.9062,3.9081,3.9101,3.9323,3.915,3.9162,3.9169,3.9656,3.9664,3.967,0,0,0,0,0,0,3.8575,3.8606,3.8864,3.8745,3.8777,3.882,3.8892,3.8897,3.8943,3.8999,3.9006,3.8942,3.9059,3.9084,3.9239,3.9328,3.9167,3.9178,3.9649,3.9658,3.9667,3.9768,0,0,0,0,0,0,3.8565,3.8604,3.8673,3.8747,3.8784,3.8998,3.8898,3.8904,3.8963,3.8954,3.9038,3.9047,3.9056,3.9221,3.9251,3.9342,3.9187,3.9641,3.9653,3.9664,3.9756,3.9779,3.9798,0,0,0,0,0,3.8553,3.8696,3.8677,3.8708,3.8871,3.9003,3.9024,3.903,3.897,3.9041,3.9077,3.9044,3.9313,3.9237,3.927,3.9366,3.9636,3.965,3.9663,3.9747,3.9775,3.9798,0,0,0,0,0,0,3.8634,3.8706,3.8685,3.8856,3.8923,3.8993,3.9082,3.9059,3.9147,3.9135,3.9141,3.9161,3.932,3.9358,3.9273,3.9549,3.9466,3.9487,3.9518,3.9545,3.9565,3.9554,3.9197,0,0,0,0,0,3.8671,3.877,3.8829,3.8974,3.9009,3.904,3.9098,3.9096,3.9167,3.9196,3.9243,3.9315,3.9416,3.9482,3.9578,3.9761,3.9779,3.9844,3.9864,3.9881,3.99,4.0,4.003,3.9715,3.9715,3.9715,0,0,3.875,3.8802,3.8865,3.8992,3.9044,3.9148,3.9064,3.9179,3.9257,3.9214,3.9362,3.94,3.948,3.965,3.9727,3.9687,3.9991,3.9899,3.9912,3.9922,4.0018,4.0047,4.0074,3.9725,3.9723,3.9721,0,0,3.8948,3.8996,3.9123,3.9176,3.9255,3.9274,3.9304,3.9377,3.9399,3.9548,3.9518,3.9612,3.9785,3.9844,3.9897,4.0115,4.0089,4.0147,4.0257,4.0355,4.0379,4.0401,4.0481,4.0509,4.0165,4.0165,4.0165,0,3.9037,3.9191,3.9191,3.9308,3.9365,3.9329,3.9458,3.9511,3.9618,3.9659,3.9612,3.9828,3.988,4.0063,4.0116,4.016,4.0196,4.0138,4.0375,4.0397,4.0418,4.0494,4.0523,4.0171,4.0171,4.017,4.0169,0,3.9297,3.9405,3.9498,3.96,3.9667,3.979,3.9811,3.988,3.9872,3.9897,4.0049,4.011,4.0217,4.026,4.0256,4.0444,4.0416,4.0372,4.0289,4.0455,4.0526,4.0555,4.0181,4.0178,4.0176,4.0175,0,0,3.9553,3.9651,3.9686,3.9731,3.9815,3.9899,4.002,4.0123,4.0183,4.0258,4.0361,4.0507,4.0467,4.0527,4.0528,4.0614,4.0784,4.0559,4.0561,4.06,4.0997,4.103,4.1064,4.0767,4.0772,4.0777,4.099,0,3.9758,3.9968,3.9972,4.0166,4.0266,4.0232,4.0338,4.0402,4.0428,4.0518,4.0548,4.0652,4.0591,4.0626,4.071,4.0746,4.0864,4.073,4.0865,4.087,4.0847,4.1101,4.1137,4.1335,4.1018,4.1023,4.1026,0,4.0026,4.0107,4.031,4.0379,4.0421,4.0516,4.061,4.0696,4.0768,4.0781,4.0847,4.0835,4.0961,4.0872,4.1047,4.0956,4.1011,4.1037,4.1045,4.1059,4.0959,4.1123,4.1399,4.1429,4.107,4.1066,4.1063,0,4.0194,4.0353,4.0495,4.0535,4.0618,4.0686,4.0724,4.0791,4.0852,4.0935,4.0975,4.1073,4.1127,4.1203,4.1219,4.1152,4.1394,4.1306,4.1411,4.1411,4.1465,4.1461,4.1755,4.1498,4.1497,4.1497,4.1496,0,4.0423,4.055,4.0571,4.0659,4.08,4.0803,4.0943,4.0976,4.1035,4.113,4.1107,4.1198,4.1212,4.1306,4.1319,4.1462,4.1487,4.1503,4.1505,4.1506,4.1504,4.1543,4.153,4.1505,4.1503,4.1501,4.15,0,4.0635,4.0654,4.0807,4.0872,4.0892,4.0993,4.1049,4.1135,4.1157,4.1278,4.1307,4.1344,4.1454,4.1476,4.1607,4.1615,4.1786,4.1774,4.1761,4.176,4.1864,4.1854,4.2194,4.2239,4.1952,4.1954,4.1956,0,4.0781,4.0877,4.0951,4.1012,4.1053,4.1151,4.1213,4.1219,4.1285,4.1374,4.1449,4.1555,4.1641,4.1818,4.1859,4.1958,4.195,4.2061,4.1965,4.1962,4.1953,4.1948,4.1958,4.2081,4.2084,4.2086,4.2088,0,4.104,4.1044,4.1132,4.1224,4.1297,4.1371,4.144,4.1492,4.1508,4.1584,4.1694,4.176,4.1892,4.1999,4.2098,4.214,4.2119,4.2118,4.2148,4.215,4.2139,4.2148,4.1813,4.2111,4.2109,4.2107,4.2106,4.2105,4.1224,4.1308,4.1372,4.1472,4.1524,4.1589,4.1672,4.1704,4.1795,4.1901,4.19,4.2021,4.2091,4.2222,4.227,4.2366,4.2331,4.2374,4.2385,4.2396,4.2406,4.2122,4.2384,4.2384,4.2383,4.2383,4.2382,0,4.1482,4.1521,4.1612,4.1709,4.1787,4.1756,4.1831,4.19,4.2006,4.2071,4.2155,4.2282,4.2385,4.2433,4.2535,4.2603,4.2596,4.263,4.2626,4.2636,4.2431,4.2396,4.2634,4.2634,4.2634,4.2634,4.2634,4.2634,4.1626,4.1765,4.1777,4.1943,4.1982,4.2098,4.2144,4.2204,4.2257,4.2399,4.2483,4.2512,4.2571,4.2677,4.2771,4.2782,4.2822,4.2861,4.2869,4.2676,4.2651,4.2626,4.2593,4.287,4.287,4.3066,4.3068,4.3069]},{"header":{"parameterUnit":"m.s-1","parameterCategory":1,"la1":30.2991,"la2":30.254,"lo1":-89.0895,"lo2":-89.0444,"dy":0.0017,"dx":0.0017,"nx":28,"ny":28,"refTime":"2023-06-19T21:00:00:Z","depth":0,"parameterNumber":3,"parameterNumberName":"V-component_of_WINDS"},"data":[0,0,0,0,0,0,0,0,0,0,0,0,0,0,0,0,0,0,0,0,0,0,0,0,0,0,0,0,0,0,0,0,0,0,0,0,0,0,0,0,0,0,0,0,0,0,0,0,0,0,0,0,0,0,0,0,0,0,-0.3326,-0.3328,0,-0.3476,-0.3478,-0.3479,-0.3587,-0.3588,-0.3588,-0.3589,-0.3744,-0.3747,-0.375,0,0,0,0,0,0,0,0,0,0,0,0,0,-0.3135,-0.3138,-0.3326,-0.3328,-0.333,-0.3476,-0.3478,-0.348,-0.3586,-0.3588,-0.3589,-0.359,-0.3743,-0.3747,-0.3751,0,0,0,0,0,0,0,0,0,0,0,0,0,-0.3245,-0.3139,-0.3326,-0.3401,-0.3409,-0.3475,-0.3478,-0.348,-0.3586,-0.3588,-0.3589,-0.359,-0.3742,-0.3746,-0.3751,-0.3756,0,0,-0.3766,-0.3769,0,0,0,0,0,0,0,0,-0.3238,-0.3252,-0.3388,-0.3396,-0.3405,-0.3514,-0.3467,-0.3573,-0.3586,-0.3519,-0.3589,-0.3591,-0.3666,-0.3678,-0.3703,-0.3763,-0.377,-0.3767,-0.377,-0.3772,-0.3773,0,0,0,0,0,0,0,-0.3231,-0.3246,-0.3385,-0.339,-0.34,-0.3428,-0.3445,-0.3488,-0.3584,-0.3525,-0.3533,-0.3549,-0.3671,-0.3698,-0.3707,-0.3772,-0.3767,-0.3771,-0.3774,-0.3776,-0.3845,-0.3843,0,0,0,0,0,0,-0.3211,-0.3239,-0.3381,-0.339,-0.3323,-0.343,-0.3449,-0.3478,-0.3583,-0.3601,-0.3548,-0.3554,-0.3689,-0.3701,-0.3713,-0.3726,-0.3772,-0.3777,-0.3779,-0.3846,-0.3844,-0.3843,0,0,0,0,0,0,-0.3206,-0.3223,-0.3375,-0.3317,-0.3338,-0.3432,-0.3463,-0.348,-0.3506,-0.3601,-0.3619,-0.3557,-0.369,-0.3706,-0.3745,-0.3733,-0.3779,-0.3783,-0.3847,-0.3845,-0.3844,-0.375,0,0,0,0,0,0,-0.32,-0.322,-0.3222,-0.3316,-0.3341,-0.3402,-0.3462,-0.3482,-0.3515,-0.3523,-0.3614,-0.363,-0.3693,-0.3737,-0.3749,-0.374,-0.3787,-0.3849,-0.3846,-0.3844,-0.3755,-0.3746,-0.3738,0,0,0,0,0,-0.3193,-0.319,-0.3222,-0.3238,-0.3345,-0.3401,-0.3416,-0.3487,-0.3513,-0.3516,-0.3577,-0.3628,-0.3732,-0.374,-0.3755,-0.3747,-0.385,-0.3847,-0.3844,-0.3759,-0.3747,-0.3738,0,0,0,0,0,0,-0.3093,-0.3203,-0.324,-0.3267,-0.3324,-0.3419,-0.3425,-0.3472,-0.3523,-0.353,-0.3616,-0.3636,-0.3665,-0.3711,-0.3717,-0.3758,-0.3797,-0.3798,-0.3727,-0.3717,-0.3708,-0.3696,-0.3791,0,0,0,0,0,-0.3073,-0.3109,-0.3205,-0.3219,-0.3246,-0.333,-0.3358,-0.3408,-0.347,-0.3495,-0.3559,-0.3618,-0.3665,-0.3694,-0.3742,-0.3763,-0.3784,-0.3765,-0.3756,-0.3749,-0.3748,-0.3763,-0.3756,-0.3835,-0.3835,-0.3835,0,0,-0.3034,-0.3099,-0.3117,-0.3201,-0.3251,-0.3287,-0.335,-0.3385,-0.3413,-0.3501,-0.3541,-0.359,-0.3662,-0.3691,-0.3708,-0.373,-0.3731,-0.3745,-0.3739,-0.3742,-0.376,-0.3752,-0.3745,-0.3833,-0.3833,-0.3833,0,0,-0.2981,-0.3034,-0.3052,-0.3101,-0.3176,-0.3233,-0.3237,-0.3326,-0.3361,-0.3403,-0.347,-0.3505,-0.3583,-0.3632,-0.3667,-0.3634,-0.3683,-0.3647,-0.3602,-0.3616,-0.361,-0.3605,-0.3593,-0.3588,-0.3646,-0.3646,-0.3646,0,-0.2923,-0.2979,-0.3055,-0.3087,-0.3122,-0.3203,-0.3223,-0.3267,-0.3354,-0.3377,-0.3401,-0.3501,-0.3556,-0.3598,-0.359,-0.3616,-0.3624,-0.3637,-0.3604,-0.36,-0.3596,-0.3586,-0.3582,-0.3641,-0.3642,-0.3642,-0.3643,0,-0.2904,-0.2942,-0.2948,-0.3029,-0.3066,-0.3091,-0.3172,-0.3199,-0.3247,-0.3301,-0.3343,-0.3411,-0.3475,-0.3489,-0.3535,-0.3539,-0.355,-0.3588,-0.3629,-0.3583,-0.3575,-0.3572,-0.3634,-0.3636,-0.3638,-0.3639,0,0,-0.279,-0.2914,-0.2915,-0.2954,-0.3043,-0.3074,-0.3104,-0.3166,-0.3188,-0.3246,-0.3273,-0.3338,-0.3374,-0.3414,-0.3467,-0.3479,-0.3449,-0.3516,-0.3519,-0.3501,-0.3458,-0.3428,-0.3422,-0.3483,-0.3482,-0.3482,-0.3451,0,-0.2751,-0.2807,-0.2877,-0.291,-0.2946,-0.3025,-0.3051,-0.3109,-0.3161,-0.3201,-0.3259,-0.3303,-0.3347,-0.3372,-0.3388,-0.3449,-0.3442,-0.3453,-0.3509,-0.351,-0.3487,-0.3418,-0.3386,-0.3354,-0.3449,-0.3448,-0.3448,0,-0.2712,-0.2765,-0.2801,-0.2888,-0.2906,-0.2928,-0.2991,-0.3027,-0.3096,-0.3133,-0.3177,-0.3235,-0.3271,-0.3309,-0.3361,-0.3366,-0.3394,-0.3428,-0.3429,-0.3436,-0.3475,-0.3423,-0.3346,-0.334,-0.3444,-0.3444,-0.3444,0,-0.2625,-0.2706,-0.2738,-0.2768,-0.2871,-0.2884,-0.2928,-0.2998,-0.3031,-0.3086,-0.3109,-0.3168,-0.32,-0.3245,-0.3317,-0.3338,-0.3362,-0.3405,-0.3394,-0.3392,-0.3394,-0.3393,-0.332,-0.3413,-0.3413,-0.3413,-0.3413,0,-0.2573,-0.2591,-0.27,-0.272,-0.2744,-0.2825,-0.2847,-0.2898,-0.2959,-0.2991,-0.3064,-0.3092,-0.3186,-0.3226,-0.3283,-0.3318,-0.3332,-0.3364,-0.3378,-0.3357,-0.3352,-0.3375,-0.3379,-0.3412,-0.3412,-0.3412,-0.3413,0,-0.2479,-0.2552,-0.2593,-0.2687,-0.2711,-0.2724,-0.2805,-0.2828,-0.2885,-0.2924,-0.2938,-0.3027,-0.3078,-0.3155,-0.3229,-0.3268,-0.3293,-0.3318,-0.3269,-0.3278,-0.3263,-0.3263,-0.3201,-0.3197,-0.3292,-0.3291,-0.329,0,-0.244,-0.2457,-0.2552,-0.2578,-0.2619,-0.2661,-0.2695,-0.2776,-0.2809,-0.2889,-0.2902,-0.2958,-0.3008,-0.3086,-0.3158,-0.3215,-0.3242,-0.3216,-0.3251,-0.3229,-0.3241,-0.3239,-0.3241,-0.3207,-0.3206,-0.3205,-0.3204,0,-0.2364,-0.24,-0.2446,-0.2504,-0.2543,-0.2594,-0.2648,-0.2665,-0.2759,-0.2792,-0.2845,-0.2883,-0.2959,-0.3015,-0.3082,-0.3129,-0.3182,-0.3193,-0.3193,-0.317,-0.3142,-0.3157,-0.3246,-0.3193,-0.3194,-0.3195,-0.3196,-0.3196,-0.2297,-0.2315,-0.2385,-0.2435,-0.2484,-0.2533,-0.2559,-0.2619,-0.2664,-0.2731,-0.2778,-0.2827,-0.2897,-0.2993,-0.3037,-0.3079,-0.3101,-0.3102,-0.3102,-0.3101,-0.3093,-0.3136,-0.3091,-0.3092,-0.3092,-0.3092,-0.3093,0,-0.2224,-0.2273,-0.2318,-0.2391,-0.243,-0.2476,-0.2539,-0.2569,-0.2612,-0.2672,-0.2719,-0.278,-0.2835,-0.2911,-0.2972,-0.299,-0.3016,-0.3003,-0.3002,-0.3012,-0.3069,-0.3062,-0.2981,-0.2981,-0.2981,-0.2981,-0.2981,-0.2981,-0.2191,-0.2224,-0.2268,-0.2328,-0.2378,-0.2427,-0.2458,-0.2505,-0.2553,-0.2618,-0.2663,-0.2713,-0.278,-0.2846,-0.2899,-0.292,-0.2939,-0.2918,-0.2947,-0.2998,-0.3008,-0.3018,-0.3012,-0.2922,-0.2922,-0.2887,-0.2887,-0.2886]}]]